map of RRG home
RRG - Airport
Location
City:  Plaine Corail, Rodrigues Island, Mauritius
Name:Sir Gaėtan Duval Airport
Old (Alt.):Plaine Corail Airport
ICAO:FIMR
IATA:RRG

Details
Type:Airport (Aerodrome, Airfield)
Use:Public/Civil
Latitude:19°45'28"S (-19.757777)
Longitude:63°21'41"E (63.361389)
Elevation:93 ft (28 m)
Variation:17.08°W (WMM2015 magnetic declination)
0.10° annual change
Runways:1
Longest:4222 × 98 ft (1287 × 30 m), paved

Time
Time Zone:UTC+4
Local Time:

Weather
METAR:FIMR 180000Z 17014KT 9999 SCT016 SCT050 22/21 Q1016
TAF:FIMR 172320Z 1800/1818 14015G25KT 9999 SCT017
TEMPO 1800/1806 7000 -SHRA FEW010 BKN016 BKN050

Related Locations
Nearby:
Farthest:MMSL: 11960 mi / 19247 km
Los Cabos [Aeropuerto Cabo San Lucas], BCS, MX

Find:

   beyond  
but within

Other Information
Maps:
NOTAMs:
Links:
Sources:

  
  • flag of Mauritius
  

Airport Diagram

Airport diagram for RRG

Airport diagram PDF

Sectional Chart

Flight Planning
at skyvector.com

Satellite Image

Google Maps Satellite view

 

Copyright © 2004-2018 Karl L. Swartz. All rights reserved.
The Great Circle Mapper name and logo are trademarks of the Great Circle Mapper.
All other trademarks mentioned herein belong to their respective owners.
Please see credits for attibutions and further copyright information.

  Follow gcmap on Facebook Follow gcmap on Twitter Follow gcmap on Google+ GCmap on LinkedIn

hCard Microformat

Geo Microformat